Weather History for Cook, MN

Change the Weather History Date:

Friday, January 11, 2013

  Actual Average Record
Temperature  
Mean Temperature 34 °F -  
Max Temperature 35 °F 15 °F 37 °F (2006)
Min Temperature 32 °F 0 °F -20 °F (1999)
Degree Days  
Heating Degree Days 32    
Moisture  
Dew Point 33 °F    
Average Humidity 97    
Maximum Humidity 100    
Minimum Humidity 93    
Precipitation  
Precipitation 0.13 in - - ()
Sea Level Pressure  
Sea Level Pressure 29.48 in    
Wind  
Wind Speed 4 mph (SE)    
Max Wind Speed 12 mph    
Max Gust Speed 18 mph    
Visibility 4 miles    
Events Fog , Rain , Snow    
Averages and records for this station are not official NWS values.
T = Trace of Precipitation, MM = Missing Value Source: NWS Daily Summary

Daily Weather History Graph

Daily Weather History Graph

Search for Another Location

Airport:

Trip Planner

Search our weather history database for the weather conditions in past years. The results will help you decide how hot, cold, wet, or windy it might be!

Date:

Astronomy

Jan. 11, 2013 Rise Set
Actual Time 7:57 AM CST 4:40 PM CST
Civil Twilight 7:21 AM CST 5:16 PM CST
Nautical Twilight 6:43 AM CST 5:54 PM CST
Astronomical Twilight 6:06 AM CST 6:32 PM CST
Moon 7:27 AM CST (1/11) 5:03 PM CST (1/11)
Length of Visible Light 9h 54m
Length of Day
8h 43m
Waning Crescent, 0% of the Moon is Illuminated
Jan 11
Waning Crescent
Jan 11
New
Jan 18
First Quarter
Jan 26
Full
Feb 3
Last Quarter

Hourly Weather History & Observations

Time (CST) Temp. Windchill Dew Point Humidity Pressure Visibility Wind Dir Wind Speed Gust Speed Precip Events Conditions
12:16 AM 33.8 °F 25.8 °F 32.0 °F 93% 29.67 in 7.0 mi SSE 10.4 mph 17.3 mph N/A   Overcast
12:37 AM 33.8 °F 27.0 °F 32.0 °F 93% 29.66 in 7.0 mi SSE 8.1 mph - N/A   Overcast
12:57 AM 33.8 °F 25.8 °F 32.0 °F 93% 29.65 in 5.0 mi SSE 10.4 mph - N/A   Overcast
1:16 AM 33.8 °F 27.0 °F 32.0 °F 93% 29.64 in 4.0 mi SSE 8.1 mph - 0.01 in   Overcast
1:37 AM 33.8 °F 25.3 °F 32.0 °F 93% 29.63 in 5.0 mi SSE 11.5 mph - 0.01 in   Overcast
1:57 AM 33.8 °F 25.3 °F 32.0 °F 93% 29.63 in 5.0 mi SSE 11.5 mph - N/A   Overcast
2:16 AM 33.8 °F 26.4 °F 32.0 °F 93% 29.63 in 4.0 mi South 9.2 mph 18.4 mph N/A   Overcast
2:37 AM 33.8 °F 27.0 °F 32.0 °F 93% 29.62 in 5.0 mi SSE 8.1 mph - N/A   Overcast
2:57 AM 33.8 °F 27.7 °F 32.0 °F 93% 29.61 in 5.0 mi SSE 6.9 mph - N/A   Overcast
3:16 AM 33.8 °F 28.6 °F 32.0 °F 93% 29.60 in 3.0 mi SSE 5.8 mph - N/A   Overcast
3:37 AM 33.8 °F 29.6 °F 32.0 °F 93% 29.60 in 2.0 mi SSE 4.6 mph - N/A   Overcast
3:57 AM 33.8 °F 30.8 °F 32.0 °F 93% 29.59 in 3.0 mi SSE 3.5 mph - N/A   Overcast
4:16 AM 33.8 °F - 32.0 °F 93% 29.58 in 7.0 mi Calm Calm - N/A   Overcast
4:37 AM 33.8 °F - 32.0 °F 93% 29.58 in 5.0 mi Calm Calm - N/A   Overcast
4:57 AM 32.0 °F - 32.0 °F 100% 29.57 in 3.0 mi Calm Calm - N/A   Overcast
5:16 AM 32.0 °F - 32.0 °F 100% 29.56 in 2.5 mi Calm Calm - N/A   Overcast
5:37 AM 32.0 °F - 32.0 °F 100% 29.55 in 5.0 mi Calm Calm - N/A   Overcast
6:16 AM 32.0 °F - 32.0 °F 100% 29.55 in 5.0 mi Calm Calm - N/A   Overcast
6:37 AM 32.0 °F 28.7 °F 32.0 °F 100% 29.55 in 4.0 mi SE 3.5 mph - 0.01 in   Overcast
6:57 AM 32.0 °F - 32.0 °F 100% 29.54 in 3.0 mi Calm Calm - N/A   Overcast
7:16 AM 32.0 °F - 32.0 °F 100% 29.53 in 4.0 mi Calm Calm - 0.01 in   Overcast
7:37 AM 32.0 °F - 32.0 °F 100% 29.53 in 2.5 mi Calm Calm - 0.01 in Snow Light Snow
7:57 AM 32.0 °F - 32.0 °F 100% 29.53 in 3.0 mi Calm Calm - N/A   Overcast
8:16 AM 33.8 °F - 32.0 °F 93% 29.53 in 2.5 mi Calm Calm - 0.02 in Snow Snow
8:37 AM 33.8 °F - 32.0 °F 93% 29.53 in 2.0 mi Calm Calm - 0.05 in   Overcast
8:56 AM 33.8 °F - 32.0 °F 93% 29.53 in 4.0 mi Calm Calm - N/A   Overcast
9:17 AM 33.8 °F - 32.0 °F 93% 29.52 in 5.0 mi Calm Calm - N/A   Overcast
9:37 AM 33.8 °F - 33.8 °F 100% 29.52 in 10.0 mi Calm Calm - N/A   Light Drizzle
9:56 AM 33.8 °F - 33.8 °F 100% 29.52 in 3.0 mi Calm Calm - N/A Rain Light Rain
10:17 AM 33.8 °F - 33.8 °F 100% 29.52 in 2.0 mi Calm Calm - 0.02 in Rain Rain
10:37 AM 33.8 °F - 33.8 °F 100% 29.52 in 2.5 mi Calm Calm - 0.02 in Rain Light Rain
10:56 AM 33.8 °F - 33.8 °F 100% 29.52 in 10.0 mi Calm Calm - N/A Rain Rain
11:17 AM 33.8 °F 27.7 °F 33.8 °F 100% 29.50 in 10.0 mi SSE 6.9 mph - N/A   Overcast
11:37 AM 33.8 °F 30.8 °F 33.8 °F 100% 29.48 in 10.0 mi SE 3.5 mph - N/A   Overcast
11:56 AM 33.8 °F 28.6 °F 33.8 °F 100% 29.50 in 10.0 mi SSE 5.8 mph - N/A   Overcast
12:17 PM 33.8 °F - 33.8 °F 100% 29.47 in 5.0 mi Calm Calm - N/A   Drizzle
12:37 PM 33.8 °F - 33.8 °F 100% 29.47 in 2.5 mi Calm Calm - 0.01 in Rain Rain
12:56 PM 33.8 °F 29.6 °F 33.8 °F 100% 29.46 in 10.0 mi SE 4.6 mph - N/A Rain Light Rain
1:17 PM 33.8 °F 30.8 °F 33.8 °F 100% 29.46 in 7.0 mi SE 3.5 mph - 0.01 in Rain Light Rain
2:17 PM 33.8 °F - 33.8 °F 100% 29.45 in 1.8 mi Calm Calm - N/A Rain Rain
2:37 PM 33.8 °F - 33.8 °F 100% 29.45 in 5.0 mi Calm Calm - N/A   Light Drizzle
2:56 PM 33.8 °F - 33.8 °F 100% 29.45 in 7.0 mi Calm Calm - N/A   Overcast
3:17 PM 33.8 °F - 33.8 °F 100% 29.45 in 10.0 mi Calm Calm - N/A   Overcast
3:36 PM 33.8 °F - 33.8 °F 100% 29.45 in 10.0 mi Calm Calm - N/A   Overcast
3:57 PM 33.8 °F - 33.8 °F 100% 29.45 in 2.0 mi Calm Calm - N/A   Overcast
4:16 PM 33.8 °F 30.8 °F 33.8 °F 100% 29.44 in 0.5 mi East 3.5 mph - N/A Fog Fog
4:37 PM 33.8 °F - 33.8 °F 100% 29.44 in 0.5 mi Calm Calm - N/A Fog Fog
4:57 PM 33.8 °F 30.8 °F 33.8 °F 100% 29.43 in 0.8 mi East 3.5 mph - N/A   Overcast
5:16 PM 33.8 °F 30.8 °F 33.8 °F 100% 29.42 in 0.8 mi East 3.5 mph - N/A   Overcast
5:37 PM 33.8 °F - 33.8 °F 100% 29.41 in 0.8 mi Calm Calm - N/A   Overcast
5:57 PM 33.8 °F - 33.8 °F 100% 29.42 in 0.5 mi Calm Calm - N/A Fog Fog
6:16 PM 33.8 °F - 33.8 °F 100% 29.41 in 0.8 mi Calm Calm - N/A   Overcast
6:36 PM 33.8 °F - 33.8 °F 100% 29.40 in 1.0 mi Calm Calm - N/A   Overcast
6:57 PM 33.8 °F - 33.8 °F 100% 29.40 in 1.2 mi Calm Calm - N/A   Overcast
7:16 PM 33.8 °F 30.8 °F 33.8 °F 100% 29.38 in 1.5 mi East 3.5 mph - N/A   Overcast
7:37 PM 33.8 °F - 33.8 °F 100% 29.37 in 2.0 mi Calm Calm - N/A   Overcast
7:57 PM 33.8 °F - 33.8 °F 100% 29.37 in 3.0 mi Calm Calm - N/A   Overcast
8:16 PM 35.6 °F 30.7 °F 33.8 °F 93% 29.37 in 2.5 mi SE 5.8 mph - N/A   Drizzle
8:37 PM 35.6 °F 32.8 °F 33.8 °F 93% 29.36 in 3.0 mi SE 3.5 mph - N/A   Light Drizzle
8:57 PM 35.6 °F 32.8 °F 35.6 °F 100% 29.35 in 7.0 mi ESE 3.5 mph - N/A   Overcast
9:16 PM 35.6 °F - 35.6 °F 100% 29.34 in 3.0 mi Calm Calm - N/A Rain Rain
9:37 PM 35.6 °F - 35.6 °F 100% 29.35 in 2.5 mi Calm Calm - N/A   Heavy Drizzle
9:57 PM 35.6 °F - 35.6 °F 100% 29.34 in 5.0 mi Calm Calm - N/A Rain Rain
10:16 PM 35.6 °F - 33.8 °F 93% 29.34 in 7.0 mi Calm Calm - N/A Rain Light Rain
10:37 PM 35.6 °F - 33.8 °F 93% 29.32 in 4.0 mi Calm Calm - 0.01 in Rain Rain
10:57 PM 35.6 °F - 33.8 °F 93% 29.31 in 5.0 mi Calm Calm - N/A Rain Rain
11:16 PM 35.6 °F - 33.8 °F 93% 29.30 in 5.0 mi Calm Calm - N/A   Light Drizzle
11:37 PM 35.6 °F - 33.8 °F 93% 29.29 in 7.0 mi Calm Calm - N/A Rain Rain
11:57 PM 33.8 °F - 33.8 °F 100% 29.29 in 5.0 mi Calm Calm - N/A   Overcast